Location: Newark
(13.6797°N, 8.5297°E)
Time: 04:54:43
(UTC+00:00)

Vanguard 2 Rocket - Visible Passes

Search period start: 25 January 2020 00:00
Search period end: 04 February 2020 00:00
Orbit: 554 x 3326 km, 32.9° (Epoch: 24 January)

Date Brightness Start Highest point End Pass type
(mag) Time Alt. Az. Time Alt. Az. Time Alt. Az.
25 Jan 8.7 05:27:42 10° N 05:29:11 11° N 05:30:49 10° NNE visible
30 Jan 10.2 21:09:33 10° SSW 21:11:01 12° S 21:11:01 12° S visible
31 Jan 10.0 20:09:50 10° S 20:14:44 13° SSE 20:14:44 13° SSE visible
01 Feb 10.1 21:21:24 10° SSW 21:24:18 17° SSW 21:24:18 17° SSW visible
02 Feb 9.7 20:20:30 10° SSW 20:28:05 22° S 20:28:05 22° S visible
03 Feb 8.5 05:26:00 10° N 05:28:43 15° NNE 05:32:01 10° ENE visible
03 Feb 9.8 19:19:49 10° SSW 19:28:55 18° SSE 19:31:55 17° SE visible
03 Feb 10.1 21:34:20 10° SW 21:37:43 19° SW 21:37:43 19° SW visible
